Terug naar catalogus

STARLINK-32265

ActiefCommunicatieVLEO
NORAD 60415·PAYLOAD·🇺🇸 United States

Gelanceerd Aug 10, 2024 vanaf Cape Canaveral Space Force Station

Loading…

Volgende Passages (komende 24 uur)

TLE

VersSource: CelesTrak SupGP

Epoch: Sep 14, 2026, 21:25 UTC

1 60415C 24141T   26257.89284722  .00019553  00000+0  57784-3 0  2575
2 60415  53.1571  79.6580 0001232  85.7261  10.7960 15.34372439    17

Volg STARLINK-32265 in realtime met AllMySat

Download on the App Store